sat.trackr.live / text

‹ back to catalog

AMAZONAS 2

NORAD 35942 · 2009-054A

PAYLOAD ACTIVE UNKNOWN

§ Identity

Operator
Country
SPN
Launch date
2009-10-01
Launch site
FRGUI
Launch vehicle
Mass (kg)
RCS (m²)
11.02

Purposes: comms

External: N2YO · Heavens-Above · Gunter

§ Orbital elements

Epoch: 2026-09-10T05:39:34.432416Z

Period
1,436.13 min
Inclination
2.0292°
Eccentricity
0.0003286
Mean motion
1.00269232 rev/d
Perigee alt
35,773.5 km
Apogee alt
35,801.2 km
Semi-major
42,165.4 km
B*
0.0000e+0
RAAN
81.8571°
Arg perigee
88.4825°
Mean anomaly
191.8046°
Rev number
6,203

§ Raw data

AMAZONAS 21 35942U 09054A   26253.23581519 -.00000278  00000+0  00000+0 0  99992 35942   2.0292  81.8571 0003286  88.4825 191.8046  1.00269232 62039

JSON: /api/v1/satellites/35942 · /tle

For live sub-satellite position, see the globe view (requires WebGL).

§ Visibility from observer

Set your observer location to see the next 7 days of passes ≥ 10°. The values pass through the URL so the page stays shareable.

No JS? Fill the form by hand. The geolocation button needs JavaScript.